Wind_Speed
15 15 16 17 17 17 18 19 20 21 21 21 21 21 21 21 21 23 24 24 25 25 25 26 27 28 28 27 27 26 25 23 21 20 20 20 20 19 20 20 20 20 20 21 21 21 20 19 16 12 15 21 23 21 19 17 17 17 17 17 16 15 15 13 12 12 11 10 9 11 13 14 14 15 15 14 13 13 12 12 12 11 10 9 9
15 15 16 16 17 17 19 20 21 21 20 20 21 21 20 19 20 21 22 23 24 24 25 25 25 26 28 28 28 27 26 26 24 21 19 19 19 19 19 20 20 21 21 20 20 21 21 21 20 18 13 13 20 23 22 19 18 18 18 18 17 16 16 15 14 13 13 12 11 11 12 14 15 15 15 16 15 15 14 13 13 12 11 10 9
14 15 16 16 17 18 20 21 22 22 21 20 21 22 21 20 20 19 20 21 22 24 25 25 25 24 25 27 27 27 27 27 27 25 21 19 19 18 18 19 20 20 21 20 20 21 21 21 21 20 18 15 13 17 22 21 18 18 20 19 18 17 17 16 15 14 14 14 14 12 12 13 15 15 15 15 16 16 16 15 14 13 12 11 10
14 15 15 16 18 19 20 21 23 22 20 19 21 22 23 22 22 20 19 19 20 22 23 24 24 24 23 24 25 25 26 26 26 26 24 22 21 20 19 18 18 19 20 20 20 20 21 21 21 20 20 19 16 13 17 22 20 18 20 20 18 18 18 18 16 16 15 15 15 14 13 12 14 15 15 15 15 15 16 16 16 15 14 13 12
13 14 15 16 18 20 21 22 22 22 20 18 19 21 23 23 23 22 20 19 19 19 21 22 23 23 23 23 23 23 24 25 25 24 24 23 23 22 21 19 18 18 19 19 20 20 20 21 21 21 21 21 19 17 12 15 22 20 19 21 21 20 20 20 19 18 17 16 16 15 15 13 13 14 15 16 16 16 16 16 16 17 16 15 15
14 14 16 18 20 21 22 23 22 22 21 19 19 21 23 23 23 22 21 20 19 18 19 20 22 23 23 23 23 23 23 23 23 23 22 21 21 21 21 20 19 18 19 20 20 20 21 21 22 22 22 22 21 19 18 11 16 22 21 21 22 21 22 22 21 19 18 17 17 17 17 16 15 14 14 14 15 15 16 16 16 16 17 16 16
16 16 18 19 20 22 22 23 22 21 20 19 19 20 21 22 23 22 21 20 19 18 18 19 20 22 23 23 22 23 23 22 22 22 22 22 21 21 21 20 19 19 20 21 22 22 22 23 23 23 23 22 22 21 20 17 10 16 22 23 23 22 22 23 22 20 19 18 18 19 19 18 17 16 15 14 13 13 14 15 16 16 16 16 17
18 19 19 19 20 21 22 22 22 21 20 19 19 20 20 21 21 22 21 20 19 18 18 18 19 20 21 22 22 22 23 23 22 22 22 22 22 22 21 21 21 21 20 20 21 22 23 24 24 24 24 22 22 22 20 19 14 8 16 23 25 24 21 21 22 22 21 20 20 20 20 20 20 19 18 17 15 13 12 13 15 16 16 16 17
19 20 19 19 20 21 22 22 22 22 22 22 22 22 22 21 20 20 20 20 19 18 18 18 18 19 19 20 21 21 22 23 23 22 22 22 23 24 23 23 22 23 22 22 22 22 23 23 23 24 25 24 22 21 21 19 16 12 9 15 24 27 24 20 21 23 24 23 22 21 21 21 22 21 20 19 17 15 14 13 13 14 15 16 17
20 19 19 19 20 21 22 23 23 24 24 25 25 25 25 23 21 19 18 18 18 18 18 18 18 18 19 19 20 21 22 23 24 24 23 23 23 25 26 25 24 24 24 23 22 23 23 23 23 23 24 25 24 22 22 21 18 15 12 8 15 25 27 24 22 21 22 24 24 23 23 22 23 23 22 21 19 17 15 14 13 13 13 14 16
19 19 19 19 20 21 22 24 25 25 26 27 27 27 27 26 24 21 19 18 18 18 19 19 20 19 19 19 21 22 22 23 24 25 25 24 24 25 27 27 26 25 24 24 23 22 23 24 24 24 24 24 25 25 23 22 20 17 14 11 8 13 22 27 26 23 21 24 25 25 25 24 24 24 24 23 22 20 17 15 14 14 14 14 15
18 18 19 20 20 21 22 24 25 26 26 27 28 28 28 27 27 25 23 21 20 19 19 20 21 22 21 20 21 22 23 23 24 25 25 25 25 24 25 27 27 27 26 25 24 22 22 22 23 24 25 24 24 25 25 24 22 19 16 13 11 8 10 19 25 25 23 24 25 25 27 26 25 26 26 26 25 23 21 19 18 17 17 16 17
18 19 20 20 20 22 23 25 25 26 26 27 28 28 28 28 27 26 25 24 22 21 21 22 23 24 23 22 23 23 24 24 25 25 25 25 25 25 25 26 28 29 28 27 26 24 22 22 22 23 24 25 24 23 24 24 23 21 18 15 12 9 7 8 15 21 23 25 26 26 27 27 26 27 27 27 27 26 25 24 23 21 19 20 21
18 19 20 20 22 23 24 25 25 25 26 27 27 28 28 28 28 27 27 26 24 22 22 23 24 25 25 24 24 25 25 26 26 26 26 26 27 27 26 26 27 29 30 29 28 26 25 23 22 23 23 24 25 24 24 23 23 23 20 17 15 12 9 6 6 10 15 20 24 26 27 27 27 29 31 30 29 29 29 28 28 26 24 23 24
18 19 19 21 22 23 24 25 25 25 26 27 27 28 28 28 28 28 28 28 27 25 24 24 25 26 26 26 26 27 27 27 27 27 27 28 29 29 29 29 29 29 31 31 30 28 26 25 24 23 24 24 24 25 25 24 23 24 22 20 17 15 12 9 6 5 6 10 16 20 24 27 28 31 33 33 32 32 32 32 32 31 30 28 26
18 18 19 21 22 23 24 24 25 26 27 27 28 28 29 29 29 29 29 29 29 28 28 27 26 26 26 27 27 27 28 28 28 28 28 28 29 31 31 32 32 32 32 33 32 30 28 26 25 24 24 25 25 26 26 26 25 24 24 23 21 18 16 14 10 7 5 4 6 10 14 20 26 31 33 33 34 35 35 35 35 34 32 31 30
17 18 20 21 22 23 24 25 26 27 27 28 29 29 29 29 29 30 30 30 30 30 30 30 29 29 28 28 28 29 29 29 29 29 28 29 29 30 32 33 33 33 33 34 34 33 31 28 26 24 24 26 27 27 28 27 26 25 25 26 24 21 19 17 15 12 9 6 5 5 6 10 16 23 29 33 34 35 36 36 35 35 34 32 31
17 18 20 21 22 24 24 25 26 27 28 29 29 29 29 29 30 30 31 31 32 32 31 31 31 31 31 31 31 30 30 29 29 29 29 30 30 31 32 33 34 34 33 34 34 34 33 31 28 25 24 25 26 27 28 28 27 26 26 27 27 26 23 20 18 17 15 12 10 8 7 6 8 11 17 24 29 34 37 37 36 36 35 34 32
17 19 20 21 22 23 25 26 27 28 29 29 30 30 30 30 30 31 31 32 32 32 32 32 32 32 33 32 32 32 31 30 30 30 30 31 32 32 33 33 34 34 33 33 33 32 31 31 30 28 26 25 25 26 27 28 28 28 27 27 28 29 28 25 22 20 19 18 16 14 13 10 9 9 10 12 17 23 29 34 37 38 38 37 36
17 18 20 21 22 23 24 25 27 28 29 29 29 30 30 30 31 31 31 32 32 32 33 33 33 33 33 33 33 32 32 31 30 30 31 31 33 34 34 34 34 34 33 32 30 30 30 30 31 31 30 28 27 27 27 26 27 28 28 28 28 29 30 29 28 25 22 21 20 19 18 17 15 13 12 12 12 13 16 21 28 35 39 40 39
17 18 19 20 21 22 24 25 26 27 28 29 29 30 30 31 31 31 31 31 32 32 33 33 33 33 33 33 33 32 32 31 31 31 31 32 33 34 35 36 36 36 34 30 28 28 29 30 31 32 32 31 30 29 28 27 26 27 27 28 29 30 31 31 32 30 27 24 24 23 22 22 21 20 18 17 15 15 14 14 17 22 29 35 39
18 18 19 20 21 22 23 25 26 26 27 28 29 30 30 31 31 31 31 32 32 33 33 33 34 33 33 33 33 33 32 32 32 32 33 33 33 34 36 37 37 37 34 28 27 28 30 31 32 32 32 32 31 31 30 29 27 26 26 27 29 31 32 33 35 35 32 29 28 26 25 25 25 25 24 22 21 20 19 18 17 17 19 23 29
18 19 19 21 21 22 24 25 25 26 27 28 29 29 30 31 31 32 32 33 33 33 34 34 34 34 33 33 33 32 32 32 33 33 34 34 34 35 36 37 38 38 36 31 28 30 31 32 33 33 33 32 32 32 31 31 30 29 27 28 30 33 35 36 37 37 34 34 34 32 30 29 28 28 27 27 26 25 24 23 22 21 20 19 21
18 19 20 21 22 23 24 25 26 27 28 28 29 30 30 31 32 33 33 34 34 34 34 34 34 34 34 34 33 32 32 32 33 33 34 35 35 37 38 39 39 39 38 34 32 32 33 34 36 36 35 34 33 33 32 32 32 32 31 31 32 34 36 38 39 37 35 36 38 38 36 33 32 31 31 30 30 30 29 28 27 26 25 24 23
18 19 20 21 22 23 25 26 27 28 29 29 30 30 31 32 32 33 34 34 34 35 35 35 35 35 35 35 35 34 33 33 33 34 35 35 36 38 39 40 41 41 39 36 34 34 36 37 39 39 38 36 35 34 34 33 33 33 33 34 34 35 36 38 38 37 36 37 40 41 40 38 37 36 35 34 33 33 33 32 32 31 30 29 28
19 20 21 22 23 24 26 27 28 29 29 30 31 32 32 33 33 34 34 34 35 35 36 36 36 36 36 36 36 36 35 35 36 36 36 37 37 38 39 40 41 42 40 37 35 36 37 39 41 41 41 40 39 38 37 36 35 35 34 34 35 35 36 37 38 38 39 40 40 41 41 41 41 41 41 39 38 37 36 36 36 35 35 34 33
20 21 22 23 24 25 27 28 29 30 30 31 32 33 33 34 34 34 35 35 35 36 37 37 38 38 38 38 38 38 37 37 38 39 39 39 39 39 40 41 42 42 42 40 38 38 40 41 43 43 43 43 43 42 41 40 39 38 37 36 36 36 36 37 38 39 40 41 42 42 42 43 44 45 45 44 43 41 40 39 39 39 39 38 37
21 22 23 24 25 26 28 29 30 31 31 32 33 34 34 35 35 35 36 36 36 37 38 39 39 40 40 40 41 41 40 40 41 41 42 42 42 42 43 44 44 42 41 41 41 41 42 43 44 45 45 45 45 44 42 41 40 39 38 37 38 38 38 38 39 40 41 42 43 44 45 45 47 47 48 47 47 46 44 42 42 42 42 42 41
22 23 25 26 27 28 29 30 31 32 33 33 34 35 35 36 36 36 37 37 37 38 39 40 41 42 42 43 43 44 44 44 44 44 44 44 44 45 46 47 47 43 41 42 43 43 43 43 44 46 47 47 47 46 45 44 42 41 39 38 38 38 39 40 40 41 41 42 44 45 47 48 48 49 50 50 51 50 49 47 45 45 45 45 45
23 25 26 27 28 29 30 31 32 33 34 35 36 36 37 37 37 38 38 38 39 39 40 41 42 44 45 45 45 46 46 46 46 46 46 46 46 46 47 49 49 45 43 44 46 46 45 44 45 46 48 48 48 48 48 48 47 45 43 41 40 40 40 42 42 43 42 42 43 44 46 48 49 50 51 53 54 55 54 53 51 49 48 48 48
24 26 28 29 30 31 32 32 33 34 35 36 37 39 39 39 40 41 41 41 41 41 42 43 43 45 46 47 47 48 48 49 49 49 49 49 48 48 48 50 49 47 47 48 49 49 48 47 47 48 49 50 50 50 50 50 48 47 46 46 45 44 44 44 45 45 45 44 44 43 44 46 48 51 53 55 56 58 59 59 58 55 53 51 52
26 28 29 30 31 32 33 33 34 35 37 38 39 41 41 42 43 44 43 43 44 44 44 44 45 46 47 48 48 49 49 51 51 52 52 52 51 51 50 51 50 50 50 52 52 52 51 50 49 50 51 52 52 52 52 50 49 49 49 50 50 50 50 49 48 47 47 47 46 45 45 45 47 49 53 56 59 60 61 62 62 61 59 57 56
29 30 31 31 33 34 34 34 35 37 38 39 41 42 43 45 45 46 45 45 46 46 46 46 47 47 49 50 50 50 51 52 52 53 53 53 53 53 52 53 53 52 53 53 53 52 52 52 51 51 51 52 53 53 52 51 51 52 54 55 56 56 55 53 51 48 47 47 48 48 47 47 47 48 50 54 58 62 64 64 64 63 63 61 60
31 32 33 33 34 35 36 36 37 38 39 41 42 43 45 46 47 47 47 48 49 48 48 48 49 50 51 52 53 53 53 53 53 53 54 54 53 54 54 55 55 55 55 54 53 53 53 53 53 52 52 52 52 52 51 52 54 56 58 59 60 60 58 56 53 50 47 46 47 48 49 49 48 48 49 51 54 59 64 67 68 67 65 64 63
33 35 35 36 36 36 37 37 38 39 41 42 43 44 46 47 49 49 50 50 51 51 50 50 50 52 53 54 55 55 55 55 55 55 56 56 55 55 56 57 57 57 57 56 55 55 54 53 53 53 53 52 52 52 53 55 58 59 61 62 61 60 58 56 54 52 50 48 47 47 48 49 50 50 50 50 52 54 58 64 69 70 69 68 67
36 37 38 38 38 38 39 39 40 41 42 43 44 46 47 48 49 50 51 52 52 52 52 52 53 55 56 56 56 54 55 58 58 58 58 58 58 57 58 59 59 59 58 57 56 56 56 56 54 54 53 52 52 54 55 58 61 64 65 64 61 58 55 53 52 52 52 51 50 48 48 48 49 50 51 51 52 53 55 59 64 69 71 72 72
38 39 40 40 40 40 40 41 41 42 43 44 45 47 48 49 50 51 52 53 53 54 54 55 57 58 58 57 56 56 58 58 59 60 61 60 60 60 60 60 61 61 59 58 57 57 57 57 56 55 53 54 55 56 57 60 65 68 69 65 60 56 53 51 50 50 50 51 52 51 50 49 49 49 50 50 52 54 56 57 59 63 67 71 74
40 41 42 41 41 41 42 42 43 43 44 46 47 49 50 51 52 53 53 53 54 55 56 57 60 60 59 57 57 60 59 57 59 63 63 62 62 62 62 63 63 62 60 59 58 58 58 57 57 55 56 57 58 59 61 65 71 74 74 67 59 54 52 50 50 49 48 50 52 52 52 52 51 50 49 49 50 53 56 58 60 61 63 65 69
42 43 43 43 42 42 43 44 44 45 46 47 49 51 52 53 54 55 55 55 56 56 57 59 61 61 60 57 59 62 59 57 62 66 65 64 65 65 65 65 64 63 61 60 59 59 58 57 56 56 59 60 61 64 67 71 76 80 79 71 61 55 51 49 49 49 48 49 51 52 53 53 52 51 50 49 49 50 53 56 60 62 63 64 65
44 45 45 45 44 44 45 45 46 47 48 49 52 53 54 55 56 56 58 58 59 58 59 60 61 62 60 58 61 63 61 60 65 68 67 68 68 68 68 67 66 64 62 60 59 59 58 57 56 57 61 63 65 68 72 75 80 84 83 75 64 57 52 49 49 50 50 50 50 51 52 53 50 48 48 48 49 49 51 54 58 61 63 64 65
46 46 47 47 46 46 46 47 48 49 50 52 54 55 56 57 57 58 60 61 61 61 62 62 62 63 62 60 63 64 62 63 68 69 69 70 70 70 70 68 67 65 62 61 61 60 59 58 58 60 63 66 68 71 75 79 85 88 86 79 68 59 54 51 51 52 53 52 51 51 53 52 49 47 47 47 48 49 50 54 57 60 63 65 66
48 48 48 48 48 48 48 50 51 51 53 54 56 58 58 58 58 60 62 63 63 64 64 63 64 65 63 62 65 66 63 65 70 71 71 72 71 72 72 70 69 67 64 63 62 61 60 60 61 64 66 68 71 74 78 83 89 92 90 83 72 62 57 54 53 55 56 54 52 53 56 55 52 50 50 50 50 51 52 54 57 59 62 65 67
50 50 51 51 50 49 50 51 53 54 55 56 58 59 60 59 60 62 63 64 65 65 65 65 66 67 66 65 67 67 64 67 71 72 72 73 73 74 74 72 70 68 66 65 63 63 62 62 65 68 69 70 74 78 81 86 92 95 93 86 76 67 60 56 54 56 58 57 55 56 60 61 59 57 57 57 56 55 55 56 58 59 61 64 67
53 52 52 52 51 50 52 54 55 56 57 58 60 61 61 61 62 64 65 65 66 66 67 67 68 68 68 67 67 66 67 69 71 71 73 74 74 75 74 72 71 69 67 66 65 64 64 66 69 70 70 73 77 81 84 90 95 97 95 89 79 71 64 59 57 57 60 61 59 59 63 66 65 63 63 64 62 61 61 60 60 60 62 64 66
55 54 54 53 52 53 55 57 57 58 59 60 61 62 62 63 64 65 67 67 67 68 69 69 69 68 68 67 66 67 69 69 70 71 73 74 75 75 74 72 71 69 68 67 66 65 67 69 70 71 72 76 80 84 89 94 97 98 97 90 81 74 68 63 61 62 63 64 64 64 66 69 69 68 68 68 67 66 66 65 64 63 63 64 66
57 56 56 56 55 56 58 59 60 60 60 61 63 63 63 64 65 67 68 68 68 69 71 72 71 69 68 67 66 68 68 67 69 72 74 75 75 74 73 72 71 70 69 67 66 67 69 70 70 72 76 79 83 88 93 98 100 100 98 92 83 76 71 67 66 67 68 69 69 68 68 70 72 71 71 71 70 69 69 69 67 65 64 65 66
59 59 59 58 58 59 60 61 62 63 63 64 65 64 65 66 67 68 69 69 69 70 72 73 71 69 68 66 66 66 63 63 70 74 74 74 74 72 72 72 71 70 68 67 68 70 70 70 71 75 79 83 87 92 97 102 103 103 100 93 85 79 74 71 70 71 73 75 74 71 69 70 72 73 73 72 71 71 72 71 69 66 65 65 66
62 61 61 60 60 61 62 63 65 65 66 66 66 67 68 68 68 69 70 70 70 72 73 73 70 70 68 65 65 63 58 61 72 75 73 74 73 72 72 71 71 70 68 67 70 71 70 71 74 78 82 87 91 96 101 105 105 105 102 94 86 81 77 74 74 75 77 78 77 73 70 70 71 71 72 72 71 71 72 71 69 68 66 65 65
63 63 63 62 62 63 64 65 66 68 68 69 69 70 71 71 71 71 72 71 71 72 73 71 69 68 65 63 63 59 56 64 73 73 72 73 72 71 71 71 70 69 68 70 71 71 72 74 78 82 86 91 95 100 105 107 107 107 102 94 87 83 79 77 76 77 78 80 78 74 70 69 69 68 69 70 71 71 72 71 70 68 67 66 64
65 65 65 64 64 65 66 67 69 70 70 71 72 73 74 74 73 72 72 72 71 70 70 69 66 64 62 63 63 59 60 67 71 71 71 71 70 70 70 70 69 69 70 72 72 72 74 78 81 85 91 95 99 104 107 109 110 108 102 94 88 84 81 79 77 77 77 79 77 73 69 68 67 65 64 64 65 67 69 68 68 68 67 65 63
67 68 67 66 65 66 68 69 70 72 73 74 75 76 76 75 74 74 73 71 68 66 65 63 61 60 62 63 64 63 65 68 70 69 70 69 69 69 69 68 69 71 72 74 74 75 77 80 84 90 95 99 103 107 109 111 112 109 101 94 88 84 81 79 77 76 76 76 76 72 68 66 64 61 59 56 57 61 63 63 63 65 64 63 61
Wind_Direction
30 28 28 30 27 25 24 24 23 20 21 25 27 30 32 35 36 38 39 39 39 38 36 35 34 34 34 33 31 28 25 21 19 17 16 16 17 18 19 21 21 21 20 16 13 11 9 7 1 331 283 265 260 259 258 256 253 251 251 252 253 253 252 251 250 248 253 259 264 260 251 248 245 243 241 242 245 250 256 260 266 274 284 299 307
31 31 31 30 26 23 21 20 19 19 22 26 29 31 30 30 31 33 35 37 39 39 38 36 34 32 30 31 31 30 28 26 23 21 19 17 19 19 18 19 20 20 21 18 13 11 11 11 8 4 347 298 268 259 257 256 253 251 250 250 252 254 251 249 251 250 250 251 256 261 255 250 247 245 242 242 244 246 251 255 259 265 272 281 293
33 33 33 29 24 22 19 17 16 18 22 26 29 29 28 26 25 26 27 29 32 34 36 35 34 32 29 28 29 29 27 27 26 26 24 21 19 17 17 18 18 18 19 19 15 10 11 12 10 9 7 351 308 272 258 252 251 250 250 250 250 250 249 247 248 250 252 252 254 258 259 254 250 248 247 246 248 249 251 255 257 259 265 270 278
33 33 31 26 23 21 19 17 16 16 18 22 23 23 23 22 21 19 18 19 22 25 29 31 32 31 28 27 27 26 25 25 27 28 28 26 24 21 19 19 17 16 16 16 15 12 10 10 10 8 6 2 352 323 275 251 245 246 247 250 252 248 247 247 247 248 251 253 254 256 260 260 254 250 249 249 250 250 252 256 260 260 262 267 270
35 32 28 24 23 23 21 19 19 19 18 16 15 14 15 15 16 14 12 12 13 15 19 23 25 25 25 24 23 23 22 23 24 26 27 27 26 27 27 26 21 17 16 15 14 13 11 9 8 7 6 4 1 354 326 264 244 240 240 244 251 253 251 251 250 249 251 253 256 255 255 259 257 252 250 251 252 251 252 255 260 263 264 266 268
34 31 27 26 26 25 25 25 26 25 23 19 15 12 11 11 11 11 10 9 7 8 10 13 17 18 19 19 19 18 17 19 20 22 23 24 24 26 28 29 29 27 26 23 21 19 16 11 7 5 5 5 3 359 359 329 257 241 237 237 242 249 254 256 254 251 250 254 259 258 253 252 254 253 252 254 256 257 256 255 257 262 265 266 268
30 29 29 29 29 29 29 29 30 29 27 23 17 12 10 9 9 10 10 9 7 4 3 5 8 11 12 13 13 13 11 11 14 16 18 18 18 19 21 23 25 27 29 28 27 26 24 21 15 9 4 4 2 359 0 358 312 250 239 239 240 242 247 254 258 255 251 256 263 262 255 249 249 249 251 252 255 257 258 257 255 257 262 265 267
28 30 30 30 30 31 31 31 30 30 27 23 17 13 11 11 11 13 12 12 10 5 0 358 359 2 4 5 6 7 6 4 5 8 11 13 12 13 13 14 15 16 19 21 22 23 24 24 21 17 12 7 3 359 358 359 354 302 250 242 243 245 242 246 255 259 258 260 264 263 256 249 247 246 247 248 248 251 255 256 255 255 256 260 264
28 30 30 29 29 30 30 30 30 29 28 25 21 17 14 13 14 14 14 13 13 10 4 358 355 354 355 357 357 360 1 360 360 360 2 5 7 7 7 7 8 8 8 8 11 15 18 18 17 16 14 13 10 4 359 356 358 351 301 253 244 245 244 241 243 254 262 263 264 263 257 250 247 247 246 247 246 247 250 253 257 259 260 261 261
28 29 28 27 27 27 27 26 28 29 29 28 26 22 18 14 12 10 8 10 12 12 9 3 357 352 350 349 350 353 355 355 355 356 356 357 359 1 2 1 0 359 359 359 0 4 8 10 9 9 8 9 10 9 5 359 355 354 348 310 255 245 243 241 237 242 253 259 261 260 257 252 250 251 250 251 251 250 248 249 255 263 269 271 268
26 26 24 25 25 24 24 24 26 27 28 27 26 24 21 17 13 7 1 359 3 6 6 4 359 355 350 347 348 350 350 350 350 352 353 354 353 354 356 356 354 351 350 351 352 354 356 359 0 2 2 1 2 3 5 3 357 352 351 349 319 261 246 243 241 239 242 249 254 256 255 253 253 255 254 252 250 249 246 246 252 259 264 267 270
22 21 21 22 21 19 20 22 23 25 25 25 24 22 21 19 17 13 7 359 355 355 356 358 358 355 352 349 349 350 350 348 346 347 349 350 351 351 352 352 350 347 345 345 346 346 347 348 351 354 357 358 357 357 358 359 359 354 349 348 349 326 270 250 245 243 240 242 245 248 252 254 255 256 254 250 248 248 246 243 245 251 256 258 258
18 18 18 18 17 16 17 18 19 20 21 22 21 20 19 18 17 16 14 10 2 354 351 352 353 353 352 349 348 349 349 347 344 344 346 347 348 349 350 350 349 346 343 342 341 340 339 338 341 345 350 354 354 354 354 353 354 353 349 344 341 341 325 278 255 248 242 240 238 239 244 251 256 258 256 252 250 249 248 245 242 242 247 253 253
17 17 16 15 14 13 14 14 15 15 16 18 18 18 18 17 16 15 15 14 11 4 355 351 351 351 351 349 347 346 345 343 342 343 346 348 348 348 347 346 346 345 342 341 340 338 335 331 330 334 340 346 349 351 351 350 350 349 347 342 336 333 330 322 289 261 248 242 239 237 238 242 249 255 255 254 253 251 250 248 245 241 239 243 248
16 15 12 11 11 11 11 11 11 11 12 13 14 15 15 14 14 14 13 13 13 10 4 358 354 352 350 348 346 344 342 341 340 341 344 347 349 349 348 344 342 342 340 339 338 336 333 329 324 324 327 332 338 343 345 344 345 345 345 342 335 329 324 320 317 303 274 251 243 241 239 237 239 247 251 252 253 254 252 251 249 246 242 241 243
12 10 8 8 8 8 8 8 8 8 9 10 11 11 11 11 10 11 11 11 11 10 7 4 360 356 353 350 347 345 343 341 340 340 341 344 347 348 348 346 343 341 338 337 335 334 332 329 324 320 319 322 327 331 334 335 335 336 338 338 334 328 322 318 314 311 305 277 252 246 244 237 235 241 246 247 250 254 255 255 252 249 247 245 245
6 5 5 6 6 5 5 5 5 5 6 6 7 7 7 7 6 7 8 8 8 7 6 4 1 359 356 353 351 349 346 343 341 340 341 342 343 344 345 345 344 341 339 336 334 332 331 329 325 319 314 315 320 322 323 324 325 326 327 328 329 326 322 316 310 306 301 291 272 253 244 239 236 240 244 244 244 248 252 255 256 254 252 249 248
1 1 2 3 3 3 3 3 3 3 3 3 3 3 3 3 3 3 4 4 4 4 3 2 0 359 357 355 354 352 349 345 342 340 340 341 342 343 343 342 341 340 338 336 334 332 331 331 329 323 315 311 314 317 318 317 317 317 318 318 319 320 320 315 308 302 299 293 284 272 256 240 232 236 243 245 244 244 245 246 250 254 255 254 251
357 358 359 0 1 2 2 1 0 1 1 1 0 360 360 360 0 1 1 2 1 1 0 359 359 358 356 355 353 352 349 346 343 340 339 340 340 341 341 340 338 336 335 334 334 334 334 334 332 329 324 315 312 313 314 313 312 310 310 310 310 311 313 313 308 301 297 293 286 280 272 260 246 233 232 240 246 248 248 244 243 245 249 252 253
353 354 355 357 358 359 360 359 359 359 359 359 359 358 357 358 359 359 360 359 358 358 358 357 357 356 355 354 352 350 349 346 343 341 340 339 339 339 339 339 337 334 332 332 335 338 338 338 336 333 329 323 316 312 309 307 306 305 305 305 304 304 306 307 306 301 295 291 286 281 276 270 264 256 247 241 238 243 251 251 247 244 244 245 247
346 348 350 352 353 355 356 356 356 357 357 357 357 357 356 356 357 357 357 356 356 355 355 355 354 354 354 353 352 350 348 346 343 342 341 340 338 337 337 337 336 335 334 333 336 340 340 340 339 336 333 329 323 318 313 306 301 299 300 301 301 300 300 301 302 300 294 289 285 280 275 271 268 265 263 259 250 244 243 248 251 250 247 246 246
340 341 343 345 347 350 351 352 353 354 355 355 356 355 355 355 355 355 355 354 353 353 353 352 351 351 352 352 352 351 349 346 343 341 341 340 338 336 336 336 336 336 335 332 333 337 340 341 340 338 336 334 329 325 321 315 307 298 293 295 298 298 297 296 297 296 293 289 285 279 273 269 267 265 264 263 261 257 252 249 250 251 251 250 249
335 335 336 339 342 344 345 347 349 351 352 353 354 354 353 353 353 353 353 352 352 351 350 349 348 348 350 351 352 351 350 348 344 342 341 340 338 336 336 336 336 336 335 331 327 330 335 339 340 338 336 335 333 330 326 321 316 308 299 294 293 293 292 290 290 290 288 288 287 282 273 266 263 263 262 262 261 260 258 257 256 255 254 254 252
331 331 331 334 337 339 341 343 345 347 349 351 351 352 352 352 352 352 352 351 350 349 347 346 345 346 348 350 351 351 350 348 346 343 341 341 339 337 336 336 336 336 335 332 327 325 327 332 335 335 335 334 333 332 328 323 319 314 308 300 293 288 286 284 284 282 281 283 285 283 278 268 261 259 259 259 260 260 258 257 257 258 258 259 259
329 329 329 331 334 336 338 339 342 344 346 347 348 350 350 351 351 350 350 349 348 346 345 343 343 345 347 349 350 349 348 347 347 345 343 341 340 338 336 336 336 336 335 332 329 328 327 327 328 330 331 332 331 330 327 324 320 315 311 304 298 291 288 285 283 280 277 277 278 279 278 272 265 260 258 256 256 256 257 256 256 257 258 259 260
327 328 327 329 332 334 336 337 339 341 342 344 345 347 348 349 349 348 347 346 346 344 343 342 342 343 345 347 349 348 347 346 346 345 343 341 339 338 337 336 335 335 336 332 329 329 329 328 327 328 329 329 329 327 325 323 320 316 311 306 301 296 292 289 287 283 280 277 275 274 273 271 267 263 260 258 256 254 254 254 255 255 256 257 258
325 326 326 328 331 332 334 335 336 338 339 341 343 345 346 346 346 345 345 344 344 343 342 341 341 342 343 345 347 347 346 345 344 344 343 341 339 337 337 337 335 334 335 333 329 327 327 329 329 328 327 327 326 324 323 321 319 316 313 309 304 299 295 292 289 287 284 280 276 273 271 269 267 265 263 261 258 256 254 254 254 255 255 256 257
323 325 325 327 329 330 331 332 334 335 336 338 340 342 343 343 343 342 342 342 342 342 341 340 339 340 341 343 344 345 345 344 343 343 342 340 339 337 336 337 335 333 334 333 330 326 325 325 326 326 325 324 322 321 319 317 316 314 311 308 304 301 297 295 293 290 286 282 279 275 272 269 267 265 264 262 260 259 256 255 255 255 255 255 255
321 323 324 326 327 328 329 330 332 333 334 335 337 338 340 340 340 340 340 340 341 341 340 339 339 339 340 341 342 343 343 343 342 342 341 340 338 337 336 336 335 333 332 332 330 327 324 322 322 322 321 320 319 318 316 315 314 312 309 306 303 300 298 295 293 291 288 284 281 277 274 271 268 265 263 261 261 260 259 257 256 256 257 256 255
319 321 322 324 325 326 327 327 329 331 332 333 334 335 336 336 336 337 337 338 339 339 339 338 338 337 338 339 340 341 341 341 341 340 340 339 337 336 335 335 334 333 331 330 329 327 324 321 319 318 317 317 316 316 315 314 314 312 310 307 304 302 299 297 294 292 288 285 281 278 276 273 270 267 263 260 259 260 260 259 258 258 258 259 258
315 317 319 321 323 324 324 325 327 329 331 332 332 333 333 332 332 332 334 336 337 337 337 337 337 336 336 337 339 339 340 340 339 339 338 338 337 335 334 333 332 331 329 328 328 326 324 321 318 316 315 315 314 314 314 314 314 313 312 309 307 305 303 300 297 294 291 287 282 279 277 274 271 268 264 260 258 258 259 259 260 260 260 260 260
313 314 315 317 319 320 321 323 326 328 329 330 331 331 331 330 330 329 330 331 334 335 335 334 334 334 334 335 336 338 339 338 338 338 338 337 336 335 334 333 331 329 327 326 326 324 322 320 318 316 315 315 315 315 315 315 315 314 313 312 310 308 306 304 300 296 292 289 285 281 278 276 273 270 265 261 258 256 256 257 258 258 259 260 261
309 310 312 313 315 317 318 321 324 326 327 328 329 329 330 329 329 329 328 328 329 331 331 332 332 332 333 333 334 336 337 337 337 337 337 336 335 334 333 332 331 329 327 326 325 323 322 320 318 317 315 315 315 315 316 316 317 316 314 313 311 309 306 304 301 297 293 289 286 284 282 279 276 273 268 263 259 255 254 254 255 255 256 256 257
307 307 308 310 312 314 316 319 322 324 325 326 327 328 328 328 327 327 327 326 326 327 328 329 330 331 331 332 333 334 336 336 336 335 335 334 334 333 332 332 331 329 328 327 325 324 322 320 318 317 316 315 315 316 317 317 317 316 314 312 311 309 306 303 300 296 292 287 285 284 284 283 280 276 272 268 263 258 254 252 252 253 253 252 252
304 305 306 308 310 312 315 317 320 321 323 324 325 325 325 325 325 325 324 325 325 325 325 326 328 330 331 331 332 332 334 335 335 334 334 333 333 333 332 332 331 330 328 327 325 324 323 322 320 318 317 317 317 318 319 319 318 317 315 313 311 308 306 303 300 297 293 288 285 283 282 282 281 279 276 272 268 263 257 252 251 251 252 251 250
302 302 303 306 308 311 313 315 317 319 320 321 321 321 322 322 322 322 322 323 324 325 324 324 325 327 328 330 330 330 331 333 333 333 333 333 333 332 332 331 331 330 329 327 325 324 323 322 321 319 318 318 318 320 321 322 322 321 319 316 312 309 305 301 298 296 294 292 290 287 284 282 281 280 278 275 271 267 262 256 252 250 250 250 250
299 300 301 304 306 308 311 312 314 316 317 317 317 318 318 318 319 319 320 321 323 324 324 323 324 325 326 327 328 329 329 330 332 333 332 332 332 332 331 331 330 330 329 327 325 325 324 323 321 320 319 319 320 322 324 327 328 328 327 321 313 308 304 300 297 295 294 293 292 290 288 286 283 280 278 275 272 269 266 262 257 253 251 250 250
296 297 299 302 304 306 308 309 311 312 313 314 314 314 314 315 316 317 319 320 321 322 323 323 324 325 325 326 327 330 329 329 331 332 332 331 331 331 330 330 330 330 329 327 326 325 324 322 320 319 320 322 323 325 327 332 334 334 332 326 315 308 304 301 298 296 294 293 293 292 291 290 287 284 280 276 272 268 266 263 260 257 254 252 250
293 295 298 299 301 303 305 306 307 309 310 311 311 311 312 313 315 316 317 318 319 320 322 323 325 325 326 325 327 329 329 327 329 331 331 331 330 330 330 330 330 329 328 327 325 323 322 320 318 320 323 324 325 327 331 335 336 336 334 329 319 310 306 303 300 298 295 294 293 292 292 290 288 287 285 280 275 270 266 263 260 258 256 254 251
291 293 295 297 299 300 302 303 304 305 307 308 308 309 310 312 313 315 316 317 318 320 321 323 324 325 325 324 325 328 328 327 329 330 330 330 329 329 329 329 329 328 327 325 323 322 321 320 320 322 324 325 326 330 333 335 336 335 335 332 323 314 310 306 302 299 297 295 294 293 291 289 289 288 285 282 278 274 270 265 261 259 258 257 255
289 291 293 295 297 298 298 299 301 303 304 306 307 308 309 310 312 313 315 316 318 319 320 322 323 324 323 322 324 326 325 325 328 329 329 329 328 328 328 328 327 327 325 324 323 323 323 322 322 322 324 326 328 332 334 334 334 334 334 333 327 318 312 308 304 301 299 298 297 295 293 292 291 290 287 284 280 276 272 268 264 261 260 258 257
287 288 290 292 294 295 296 297 299 301 303 304 305 306 307 308 310 312 314 316 317 318 319 320 321 322 322 322 323 324 322 323 326 327 327 327 327 327 327 327 327 326 325 324 324 323 323 322 323 323 324 328 331 333 334 333 333 333 333 333 328 321 315 310 306 303 301 301 301 300 299 298 296 294 291 287 283 278 273 270 267 264 262 260 258
284 286 289 290 291 292 294 296 298 299 301 302 303 305 306 307 309 311 313 315 316 316 317 318 320 321 321 321 322 322 321 322 324 325 326 326 326 326 327 327 327 326 326 325 324 323 323 323 323 324 326 330 332 333 333 332 332 332 333 332 329 324 318 312 308 305 303 304 304 303 302 300 299 297 294 290 286 282 276 271 267 264 262 261 260
283 285 286 286 288 291 293 294 296 297 299 300 302 304 305 306 308 311 313 314 314 314 315 317 319 318 317 318 320 321 320 321 323 325 325 326 326 326 326 326 326 326 325 324 324 324 323 323 324 325 328 332 333 332 331 330 331 332 332 331 329 325 321 315 310 307 305 305 305 303 301 299 298 297 294 290 287 284 280 275 269 265 261 259 259
281 282 283 284 287 289 291 293 294 296 298 299 301 303 304 305 307 310 311 312 312 313 314 315 316 315 315 317 319 320 321 322 324 325 325 325 325 326 326 326 326 325 325 324 324 323 322 323 325 327 331 333 332 329 329 330 331 331 331 330 328 326 322 317 312 308 307 306 305 303 301 299 297 295 292 289 287 284 281 277 272 267 263 260 258
278 279 282 284 286 288 290 293 294 296 298 299 300 301 302 304 306 308 309 309 311 311 311 312 313 313 314 317 319 321 322 322 324 325 325 325 325 326 326 326 325 324 324 324 323 322 322 324 327 330 332 332 329 328 328 330 330 331 331 330 327 325 323 318 314 311 308 307 305 303 301 298 296 293 290 288 286 284 281 277 273 269 265 262 259
276 279 282 284 286 288 291 293 294 296 298 298 299 299 301 303 304 306 307 307 309 309 309 311 312 312 314 316 319 323 323 321 322 324 324 325 325 325 325 325 324 324 324 323 321 321 323 326 329 331 332 329 327 327 328 329 330 330 330 329 327 325 322 318 315 312 309 307 305 303 301 298 294 292 290 287 285 282 279 277 274 270 267 263 260
277 279 282 284 286 289 291 293 294 296 297 297 297 298 300 301 303 304 304 305 307 307 308 309 310 311 314 316 320 325 322 317 320 323 324 325 325 325 325 324 324 323 323 321 321 323 325 328 331 331 329 327 326 327 328 329 330 330 330 329 327 324 321 318 314 311 309 307 305 304 301 298 294 292 290 287 284 281 279 276 274 272 268 265 262
278 280 282 284 287 289 291 292 294 295 295 296 297 298 299 300 301 302 302 304 305 306 307 308 309 311 314 316 322 325 318 315 319 323 324 324 324 324 324 323 323 322 321 321 322 324 328 330 331 329 326 326 326 327 328 329 329 330 330 328 326 324 321 317 314 311 309 307 305 304 302 298 295 292 289 286 284 281 279 277 275 273 270 267 264
278 279 281 284 286 288 290 292 293 294 295 296 297 298 298 299 300 300 301 303 305 305 305 307 309 311 314 317 321 321 317 317 321 323 323 323 323 323 323 322 322 320 319 321 324 327 330 330 328 326 325 325 326 327 328 329 330 330 330 328 326 323 320 317 314 311 309 307 305 305 303 299 296 292 288 285 283 281 278 277 276 274 272 270 267
277 278 281 284 286 288 290 292 293 294 295 297 298 297 297 298 299 300 301 303 303 303 304 306 309 311 314 317 319 319 319 321 323 323 322 322 322 322 322 321 320 319 320 323 326 329 330 328 325 324 325 325 326 327 328 329 330 330 330 328 325 322 319 317 314 312 310 308 306 306 304 300 297 293 289 286 283 281 279 277 276 274 273 272 270
Height
10969 10968 10967 10966 10965 10964 10962 10961 10960 10959 10958 10958 10957 10956 10955 10955 10954 10953 10952 10951 10950 10949 10947 10945 10943 10942 10940 10939 10937 10935 10933 10932 10931 10930 10929 10927 10926 10925 10923 10922 10921 10920 10919 10917 10916 10915 10913 10912 10911 10910 10910 10910 10910 10911 10912 10912 10913 10914 10914 10915 10916 10917 10918 10918 10918 10919 10919 10919 10919 10920 10920 10921 10921 10921 10922 10922 10922 10922 10922 10922 10922 10921 10921 10921 10921
10969 10969 10968 10967 10966 10964 10963 10961 10961 10960 10959 10958 10958 10957 10956 10956 10955 10954 10953 10952 10952 10951 10949 10947 10945 10943 10942 10940 10938 10937 10935 10934 10932 10931 10930 10929 10927 10926 10925 10923 10922 10921 10920 10918 10917 10915 10914 10913 10912 10910 10909 10909 10908 10908 10909 10910 10911 10911 10912 10913 10914 10915 10916 10916 10917 10917 10918 10918 10918 10919 10919 10919 10920 10920 10921 10921 10921 10921 10921 10921 10921 10921 10920 10920 10920
10970 10969 10968 10968 10967 10965 10964 10963 10961 10961 10960 10959 10959 10958 10957 10956 10955 10954 10953 10953 10952 10951 10950 10948 10946 10945 10944 10942 10940 10938 10937 10936 10934 10932 10931 10930 10929 10928 10926 10924 10923 10921 10920 10919 10918 10916 10915 10914 10913 10910 10909 10908 10907 10906 10906 10908 10908 10909 10909 10910 10912 10913 10914 10914 10915 10916 10916 10916 10917 10917 10918 10918 10919 10919 10920 10920 10920 10920 10920 10920 10920 10920 10920 10920 10920
10970 10970 10969 10969 10968 10966 10965 10964 10962 10961 10961 10960 10959 10959 10958 10957 10956 10955 10954 10953 10952 10951 10950 10949 10947 10946 10945 10944 10942 10940 10939 10937 10936 10934 10933 10932 10930 10929 10927 10925 10924 10922 10921 10920 10919 10917 10916 10914 10913 10911 10909 10908 10906 10904 10904 10905 10906 10906 10907 10908 10909 10911 10912 10913 10913 10914 10914 10915 10916 10916 10917 10917 10917 10918 10918 10919 10919 10919 10919 10919 10920 10920 10920 10920 10920
10972 10971 10970 10970 10969 10968 10967 10966 10964 10963 10962 10961 10961 10960 10958 10957 10956 10955 10954 10953 10952 10951 10950 10949 10948 10947 10946 10944 10943 10941 10940 10939 10937 10936 10935 10934 10932 10930 10929 10927 10926 10924 10923 10921 10920 10918 10916 10915 10913 10911 10909 10907 10905 10904 10903 10903 10904 10905 10906 10907 10908 10909 10911 10911 10911 10912 10913 10913 10914 10915 10915 10916 10916 10916 10917 10917 10918 10918 10918 10919 10919 10919 10920 10920 10920
10973 10972 10972 10971 10970 10970 10968 10967 10966 10964 10963 10962 10962 10960 10959 10957 10956 10955 10954 10953 10952 10951 10951 10950 10949 10948 10946 10945 10943 10942 10940 10940 10939 10937 10936 10935 10933 10932 10930 10928 10927 10926 10924 10922 10921 10919 10918 10915 10913 10911 10910 10908 10906 10904 10902 10902 10903 10903 10904 10906 10907 10908 10908 10909 10910 10910 10911 10911 10912 10913 10914 10914 10915 10915 10916 10916 10917 10917 10918 10918 10918 10919 10919 10919 10919
10974 10973 10972 10972 10971 10970 10969 10968 10967 10966 10965 10964 10962 10961 10959 10958 10956 10955 10954 10953 10952 10951 10950 10950 10949 10948 10946 10945 10944 10942 10941 10940 10939 10938 10936 10935 10933 10932 10930 10929 10928 10927 10925 10923 10922 10920 10919 10916 10914 10912 10910 10909 10907 10905 10903 10902 10901 10901 10901 10903 10905 10905 10906 10906 10907 10908 10909 10909 10910 10910 10911 10912 10913 10914 10914 10915 10915 10916 10916 10917 10917 10918 10918 10918 10918
10974 10974 10973 10973 10972 10971 10970 10969 10968 10967 10966 10964 10963 10961 10960 10958 10956 10955 10954 10953 10952 10951 10950 10949 10949 10947 10946 10945 10944 10943 10941 10939 10938 10937 10936 10935 10933 10931 10930 10929 10928 10926 10925 10924 10922 10921 10919 10917 10915 10913 10911 10910 10908 10906 10904 10902 10900 10899 10899 10901 10902 10902 10903 10904 10905 10906 10907 10907 10908 10908 10909 10910 10911 10912 10913 10913 10914 10914 10915 10915 10916 10917 10917 10917 10917
10974 10974 10973 10973 10972 10971 10970 10970 10969 10967 10966 10965 10963 10962 10960 10958 10957 10956 10955 10954 10953 10952 10950 10949 10948 10947 10946 10945 10944 10943 10941 10939 10938 10936 10935 10934 10932 10931 10930 10929 10927 10925 10924 10923 10922 10920 10919 10917 10915 10914 10912 10910 10909 10907 10905 10903 10901 10899 10898 10899 10900 10899 10900 10902 10903 10904 10904 10905 10906 10906 10907 10908 10909 10910 10911 10912 10912 10913 10914 10914 10915 10915 10916 10916 10916
10974 10974 10973 10973 10972 10971 10971 10970 10969 10968 10966 10965 10964 10962 10961 10959 10958 10957 10956 10955 10954 10952 10951 10950 10948 10947 10946 10945 10944 10942 10941 10939 10937 10936 10935 10933 10931 10930 10929 10927 10926 10924 10923 10922 10921 10919 10918 10917 10915 10913 10912 10910 10909 10907 10905 10904 10902 10900 10898 10898 10897 10897 10897 10899 10900 10901 10902 10903 10904 10904 10905 10907 10907 10908 10910 10910 10911 10912 10912 10913 10914 10914 10914 10914 10914
10975 10974 10974 10973 10972 10971 10971 10970 10969 10968 10966 10965 10964 10963 10961 10960 10959 10958 10957 10955 10954 10953 10951 10950 10949 10947 10946 10945 10943 10942 10940 10939 10937 10935 10934 10932 10931 10929 10927 10925 10924 10923 10921 10920 10920 10918 10917 10915 10914 10913 10911 10910 10908 10907 10905 10903 10902 10901 10899 10897 10896 10895 10895 10896 10897 10898 10899 10900 10901 10902 10903 10905 10906 10907 10908 10909 10908 10909 10911 10912 10912 10912 10911 10912 10912
10975 10975 10974 10973 10972 10972 10971 10970 10969 10968 10967 10966 10965 10964 10962 10961 10960 10959 10957 10956 10955 10953 10952 10950 10949 10948 10946 10944 10943 10941 10940 10938 10937 10935 10933 10932 10930 10929 10927 10924 10922 10921 10920 10919 10918 10917 10916 10915 10913 10912 10910 10909 10908 10906 10905 10903 10901 10900 10899 10898 10896 10895 10894 10894 10894 10895 10895 10897 10898 10900 10901 10903 10904 10904 10904 10905 10905 10906 10908 10910 10909 10909 10909 10909 10909
10975 10975 10974 10973 10973 10972 10971 10970 10969 10969 10968 10967 10965 10964 10963 10962 10961 10959 10958 10956 10955 10954 10952 10951 10949 10948 10946 10944 10942 10941 10940 10938 10936 10935 10933 10931 10930 10929 10927 10925 10922 10920 10918 10917 10917 10916 10915 10914 10913 10911 10909 10908 10907 10906 10904 10903 10901 10899 10898 10897 10896 10895 10894 10893 10892 10892 10892 10893 10895 10897 10898 10901 10903 10902 10901 10902 10903 10904 10906 10906 10906 10906 10907 10906 10906
10975 10975 10974 10973 10973 10972 10971 10971 10970 10969 10968 10967 10966 10965 10964 10962 10961 10960 10958 10957 10955 10954 10953 10951 10950 10948 10946 10944 10942 10941 10939 10938 10936 10934 10932 10931 10929 10928 10926 10924 10922 10920 10917 10915 10915 10914 10913 10913 10912 10910 10908 10907 10905 10904 10903 10902 10900 10899 10897 10896 10895 10894 10893 10892 10891 10890 10890 10890 10891 10893 10895 10898 10900 10899 10896 10898 10900 10901 10902 10902 10903 10903 10903 10903 10903
10976 10975 10974 10974 10973 10973 10972 10972 10971 10970 10969 10967 10966 10965 10964 10963 10961 10960 10958 10957 10955 10954 10953 10951 10950 10948 10946 10944 10942 10940 10938 10937 10935 10933 10932 10930 10928 10927 10925 10923 10921 10919 10916 10914 10913 10912 10911 10910 10909 10909 10907 10905 10904 10903 10902 10900 10899 10897 10896 10895 10894 10893 10892 10891 10890 10889 10888 10888 10887 10888 10890 10893 10895 10893 10892 10894 10896 10897 10898 10899 10900 10900 10900 10900 10900
10976 10976 10975 10975 10974 10974 10973 10972 10971 10970 10969 10968 10966 10965 10964 10963 10961 10960 10958 10957 10955 10954 10953 10951 10949 10947 10945 10943 10941 10939 10937 10935 10934 10932 10931 10929 10927 10925 10924 10922 10920 10918 10915 10913 10911 10910 10909 10908 10907 10906 10905 10904 10902 10901 10900 10899 10897 10896 10895 10894 10892 10891 10890 10889 10888 10887 10887 10886 10885 10885 10886 10888 10889 10888 10889 10891 10892 10892 10893 10895 10896 10896 10897 10897 10898
10977 10977 10976 10975 10975 10974 10973 10973 10972 10971 10969 10968 10967 10965 10964 10963 10961 10959 10958 10956 10955 10954 10952 10951 10949 10947 10945 10943 10941 10939 10936 10934 10932 10931 10930 10928 10926 10924 10923 10921 10919 10917 10915 10912 10909 10907 10906 10905 10904 10903 10903 10901 10900 10899 10898 10897 10895 10894 10893 10892 10891 10890 10889 10887 10887 10886 10885 10884 10884 10883 10883 10883 10884 10884 10885 10887 10888 10888 10889 10890 10891 10891 10892 10894 10895
10978 10977 10977 10976 10975 10974 10973 10972 10972 10971 10970 10968 10967 10966 10964 10963 10961 10959 10957 10955 10954 10953 10951 10950 10948 10946 10945 10943 10941 10938 10936 10934 10931 10929 10928 10926 10925 10923 10921 10920 10918 10916 10914 10911 10908 10905 10903 10902 10901 10901 10900 10899 10897 10896 10895 10894 10893 10892 10890 10890 10888 10887 10887 10886 10885 10884 10883 10883 10882 10881 10880 10880 10880 10880 10881 10882 10883 10884 10884 10885 10886 10886 10887 10888 10890
10978 10977 10977 10976 10975 10975 10974 10973 10972 10971 10969 10968 10967 10966 10964 10963 10961 10959 10957 10955 10953 10952 10951 10949 10947 10946 10943 10941 10939 10937 10935 10933 10930 10928 10926 10924 10922 10921 10920 10918 10916 10914 10912 10910 10907 10905 10903 10901 10899 10898 10897 10895 10894 10893 10892 10891 10890 10889 10888 10887 10886 10885 10884 10883 10882 10881 10881 10880 10880 10879 10878 10877 10877 10877 10877 10877 10878 10879 10879 10880 10881 10882 10882 10883 10884
10978 10977 10977 10976 10976 10975 10974 10973 10972 10970 10969 10968 10967 10965 10964 10962 10961 10959 10957 10955 10953 10952 10950 10948 10946 10945 10943 10941 10939 10937 10935 10932 10930 10928 10925 10923 10920 10919 10917 10916 10914 10912 10910 10907 10905 10904 10902 10900 10898 10896 10894 10893 10891 10890 10889 10888 10886 10885 10885 10884 10883 10882 10881 10880 10879 10879 10878 10877 10877 10876 10876 10875 10874 10874 10873 10873 10874 10874 10875 10875 10876 10876 10877 10878 10879
10978 10977 10977 10976 10976 10975 10974 10973 10972 10971 10969 10968 10967 10965 10963 10962 10960 10958 10957 10955 10953 10951 10949 10947 10946 10944 10943 10941 10939 10936 10934 10932 10929 10927 10925 10923 10920 10917 10915 10913 10912 10910 10907 10905 10903 10902 10900 10898 10896 10894 10892 10890 10888 10887 10885 10884 10883 10882 10881 10881 10879 10879 10878 10877 10876 10875 10874 10874 10873 10873 10872 10872 10871 10871 10870 10870 10870 10870 10870 10871 10871 10871 10872 10872 10873
10978 10977 10977 10976 10975 10975 10974 10973 10972 10971 10969 10968 10966 10965 10963 10961 10960 10958 10957 10955 10953 10951 10949 10947 10945 10944 10942 10941 10938 10936 10933 10930 10928 10926 10924 10922 10919 10916 10914 10912 10910 10908 10906 10904 10902 10900 10899 10897 10895 10892 10890 10888 10886 10884 10882 10881 10880 10879 10878 10877 10876 10875 10874 10874 10873 10871 10870 10869 10869 10869 10868 10868 10868 10867 10867 10866 10866 10866 10866 10866 10866 10867 10867 10868 10868
10977 10977 10976 10975 10975 10974 10973 10972 10971 10970 10969 10968 10966 10964 10963 10961 10959 10958 10956 10954 10952 10950 10948 10946 10944 10943 10941 10940 10938 10935 10933 10930 10927 10924 10922 10921 10919 10916 10914 10911 10909 10906 10903 10902 10900 10898 10896 10895 10893 10891 10889 10886 10884 10882 10880 10878 10877 10875 10874 10873 10872 10871 10870 10870 10869 10868 10867 10865 10864 10864 10863 10863 10863 10863 10863 10862 10862 10862 10862 10862 10862 10862 10863 10863 10864
10977 10976 10975 10975 10974 10973 10972 10971 10970 10969 10968 10967 10965 10964 10962 10960 10958 10956 10954 10952 10950 10949 10947 10945 10943 10941 10939 10938 10936 10935 10933 10930 10928 10925 10922 10920 10917 10914 10912 10909 10907 10904 10901 10899 10897 10895 10893 10892 10891 10889 10887 10885 10883 10880 10878 10875 10873 10872 10870 10869 10868 10867 10866 10865 10864 10863 10863 10862 10860 10859 10858 10858 10858 10857 10857 10857 10857 10857 10857 10857 10857 10858 10858 10858 10859
10976 10975 10974 10974 10973 10972 10971 10970 10969 10968 10967 10965 10964 10963 10961 10959 10957 10955 10953 10951 10950 10948 10946 10944 10942 10940 10938 10936 10934 10933 10931 10930 10928 10925 10922 10919 10916 10913 10910 10907 10904 10902 10900 10897 10894 10892 10890 10888 10886 10885 10884 10882 10881 10878 10876 10874 10871 10869 10867 10865 10863 10862 10861 10859 10859 10858 10857 10856 10856 10854 10853 10853 10852 10852 10851 10851 10851 10851 10851 10852 10852 10852 10853 10853 10853
10974 10974 10973 10972 10972 10971 10970 10969 10968 10967 10965 10964 10963 10962 10960 10958 10956 10954 10952 10951 10949 10947 10944 10942 10940 10938 10936 10934 10932 10931 10929 10927 10925 10923 10920 10917 10915 10912 10908 10905 10902 10899 10897 10895 10892 10889 10887 10884 10882 10880 10879 10877 10876 10875 10873 10871 10868 10866 10864 10862 10859 10858 10856 10854 10853 10852 10851 10850 10849 10849 10848 10847 10847 10846 10845 10845 10845 10845 10845 10846 10846 10846 10847 10847 10848
10973 10972 10971 10971 10970 10969 10969 10967 10966 10965 10964 10963 10961 10960 10958 10957 10955 10953 10951 10949 10947 10945 10943 10940 10938 10936 10934 10932 10930 10928 10926 10924 10922 10919 10917 10915 10912 10910 10907 10904 10901 10897 10894 10892 10890 10887 10884 10881 10878 10875 10873 10872 10871 10869 10868 10866 10864 10862 10860 10858 10856 10853 10851 10850 10848 10846 10845 10844 10843 10842 10841 10841 10840 10840 10839 10839 10839 10838 10839 10839 10839 10839 10840 10840 10841
10971 10970 10969 10969 10968 10968 10967 10966 10965 10963 10962 10961 10959 10958 10957 10955 10953 10951 10949 10947 10945 10943 10941 10938 10936 10933 10931 10929 10927 10925 10923 10921 10918 10916 10914 10911 10909 10906 10904 10902 10900 10896 10893 10890 10887 10884 10882 10878 10875 10872 10869 10868 10866 10864 10863 10861 10860 10858 10856 10854 10852 10849 10847 10845 10843 10841 10839 10837 10836 10835 10834 10833 10833 10832 10832 10832 10831 10831 10832 10832 10832 10832 10833 10833 10834
10969 10968 10967 10966 10966 10965 10964 10964 10963 10961 10960 10959 10957 10956 10954 10953 10951 10949 10947 10945 10943 10941 10938 10936 10933 10930 10928 10926 10924 10922 10919 10917 10915 10913 10910 10908 10905 10902 10900 10898 10896 10894 10892 10889 10885 10882 10880 10877 10874 10870 10867 10864 10862 10859 10857 10856 10854 10852 10850 10849 10847 10845 10843 10841 10838 10836 10834 10831 10829 10828 10827 10826 10825 10824 10824 10824 10823 10823 10823 10824 10824 10825 10825 10826 10826
10967 10966 10965 10964 10963 10963 10962 10961 10960 10959 10957 10956 10954 10953 10951 10950 10948 10946 10944 10942 10940 10938 10936 10933 10931 10928 10925 10923 10921 10918 10915 10913 10911 10909 10907 10905 10902 10899 10896 10894 10892 10890 10888 10886 10884 10881 10878 10875 10873 10869 10865 10862 10858 10855 10852 10850 10848 10845 10843 10841 10839 10838 10836 10834 10832 10830 10828 10826 10824 10822 10820 10818 10817 10816 10816 10815 10815 10815 10815 10815 10815 10816 10817 10818 10818
10964 10963 10962 10961 10961 10960 10959 10958 10957 10956 10955 10953 10951 10949 10948 10947 10945 10943 10941 10939 10937 10935 10933 10931 10928 10925 10922 10920 10917 10915 10912 10909 10907 10905 10903 10900 10898 10896 10893 10890 10888 10885 10883 10881 10879 10877 10874 10871 10868 10864 10861 10857 10854 10851 10848 10845 10842 10839 10836 10833 10831 10829 10827 10826 10824 10822 10820 10818 10817 10815 10813 10811 10809 10808 10807 10807 10806 10806 10806 10806 10806 10807 10808 10809 10810
10962 10961 10960 10959 10958 10957 10956 10955 10954 10953 10951 10949 10947 10945 10944 10942 10941 10939 10937 10935 10933 10931 10929 10927 10925 10923 10920 10917 10915 10912 10909 10906 10903 10900 10897 10894 10892 10890 10888 10885 10883 10881 10878 10876 10874 10871 10868 10865 10862 10859 10854 10851 10848 10845 10842 10840 10836 10833 10829 10826 10823 10820 10818 10816 10814 10812 10810 10808 10807 10806 10804 10803 10801 10799 10798 10797 10797 10797 10797 10797 10797 10798 10798 10799 10800
10959 10958 10957 10956 10955 10954 10953 10952 10951 10949 10948 10946 10944 10941 10939 10938 10936 10934 10932 10931 10929 10928 10926 10924 10922 10920 10917 10914 10912 10909 10907 10904 10900 10897 10894 10891 10888 10885 10882 10880 10877 10875 10873 10871 10868 10866 10862 10859 10856 10853 10850 10846 10843 10840 10837 10834 10831 10826 10823 10819 10816 10812 10809 10807 10805 10803 10801 10798 10796 10794 10794 10793 10792 10791 10789 10787 10787 10787 10787 10788 10788 10788 10788 10789 10790
10956 10954 10953 10952 10952 10950 10949 10948 10947 10946 10944 10942 10940 10938 10936 10933 10931 10929 10927 10926 10925 10924 10922 10920 10918 10915 10913 10910 10907 10904 10903 10901 10897 10894 10892 10889 10885 10882 10878 10875 10872 10869 10867 10865 10862 10860 10857 10854 10850 10847 10844 10841 10838 10835 10832 10829 10825 10821 10816 10812 10808 10803 10799 10796 10794 10794 10792 10790 10787 10785 10783 10782 10781 10780 10779 10778 10777 10776 10777 10777 10777 10778 10778 10778 10779
10952 10951 10949 10948 10947 10946 10945 10944 10943 10942 10940 10939 10937 10935 10933 10930 10927 10925 10923 10922 10920 10919 10918 10916 10914 10911 10908 10906 10902 10899 10897 10896 10893 10890 10887 10884 10881 10878 10874 10871 10868 10864 10861 10858 10855 10852 10850 10848 10845 10841 10837 10834 10832 10829 10826 10822 10818 10814 10809 10804 10800 10795 10790 10786 10783 10781 10780 10779 10778 10777 10775 10772 10770 10768 10768 10767 10767 10766 10766 10766 10766 10767 10767 10768 10768
10949 10947 10945 10944 10943 10942 10941 10940 10939 10938 10937 10935 10933 10931 10930 10927 10925 10922 10919 10917 10916 10914 10912 10911 10909 10907 10904 10902 10899 10896 10893 10891 10888 10885 10882 10879 10876 10873 10870 10866 10863 10860 10856 10853 10849 10845 10842 10840 10837 10834 10831 10828 10825 10823 10820 10816 10811 10806 10800 10795 10790 10785 10782 10778 10774 10771 10768 10766 10766 10765 10764 10763 10760 10758 10757 10756 10755 10755 10754 10754 10755 10755 10756 10756 10757
10945 10943 10942 10941 10939 10938 10936 10935 10934 10933 10932 10931 10929 10927 10926 10924 10921 10919 10916 10914 10911 10909 10907 10905 10903 10902 10900 10897 10894 10891 10889 10886 10883 10880 10877 10875 10871 10868 10865 10862 10858 10854 10850 10846 10843 10839 10835 10831 10828 10826 10824 10821 10819 10817 10814 10810 10804 10798 10791 10785 10779 10775 10772 10769 10766 10764 10760 10757 10754 10753 10752 10751 10750 10749 10747 10746 10744 10743 10743 10743 10743 10743 10743 10744 10745
10940 10938 10937 10937 10935 10933 10932 10931 10929 10929 10928 10926 10924 10922 10921 10919 10917 10914 10912 10910 10907 10905 10903 10900 10898 10896 10894 10892 10889 10886 10883 10880 10878 10875 10872 10869 10866 10863 10860 10856 10852 10848 10844 10840 10836 10832 10828 10824 10821 10819 10816 10813 10810 10807 10805 10801 10795 10789 10782 10775 10769 10765 10762 10759 10756 10754 10752 10749 10745 10742 10740 10738 10737 10737 10737 10736 10735 10733 10732 10732 10731 10731 10731 10731 10732
10935 10934 10932 10932 10931 10929 10927 10926 10924 10923 10923 10921 10919 10917 10915 10913 10911 10909 10907 10905 10904 10902 10900 10897 10894 10891 10889 10886 10884 10880 10877 10874 10871 10868 10866 10863 10860 10857 10854 10850 10846 10842 10838 10834 10830 10827 10823 10819 10815 10812 10808 10804 10801 10797 10793 10790 10785 10780 10774 10767 10760 10755 10753 10750 10746 10743 10742 10740 10736 10733 10730 10728 10726 10726 10725 10724 10723 10723 10722 10721 10720 10719 10719 10720 10721
10930 10929 10927 10926 10925 10924 10922 10920 10919 10918 10917 10916 10913 10911 10909 10907 10905 10903 10900 10899 10897 10896 10895 10892 10889 10887 10884 10881 10878 10875 10872 10869 10866 10862 10859 10856 10853 10850 10847 10843 10839 10836 10832 10829 10826 10822 10818 10813 10809 10805 10801 10797 10792 10788 10783 10780 10776 10771 10766 10760 10753 10746 10743 10741 10737 10733 10731 10730 10728 10725 10720 10717 10717 10717 10715 10713 10712 10711 10711 10710 10708 10708 10709 10710 10711
10925 10923 10922 10921 10919 10918 10916 10914 10913 10912 10911 10910 10907 10905 10903 10901 10899 10897 10894 10892 10890 10888 10887 10885 10883 10882 10880 10876 10872 10868 10865 10863 10860 10857 10854 10850 10847 10844 10841 10837 10834 10831 10827 10823 10819 10815 10810 10806 10802 10799 10795 10789 10784 10780 10775 10770 10767 10762 10756 10752 10746 10739 10735 10731 10727 10723 10720 10719 10718 10715 10710 10708 10708 10707 10705 10703 10701 10700 10699 10698 10696 10697 10698 10699 10700
10919 10918 10916 10915 10913 10912 10911 10909 10907 10906 10905 10903 10901 10898 10896 10895 10893 10891 10888 10885 10883 10881 10879 10878 10877 10876 10874 10871 10866 10862 10860 10857 10854 10852 10848 10845 10841 10837 10834 10831 10827 10823 10819 10815 10811 10807 10803 10799 10795 10791 10787 10782 10775 10771 10767 10762 10757 10752 10746 10741 10736 10731 10726 10722 10717 10712 10709 10709 10708 10704 10698 10696 10697 10697 10694 10692 10690 10689 10688 10686 10685 10686 10686 10687 10687
10912 10912 10910 10908 10907 10906 10905 10904 10902 10901 10899 10898 10895 10893 10890 10889 10887 10885 10882 10880 10877 10875 10873 10872 10870 10868 10865 10864 10861 10857 10854 10852 10849 10846 10842 10838 10834 10830 10826 10822 10818 10814 10811 10807 10804 10800 10795 10791 10787 10782 10779 10774 10767 10763 10760 10755 10748 10742 10736 10730 10725 10720 10716 10713 10709 10703 10698 10697 10699 10696 10688 10683 10684 10685 10682 10679 10678 10677 10676 10674 10673 10673 10674 10674 10674
10905 10905 10904 10902 10902 10901 10900 10898 10897 10895 10894 10892 10890 10887 10885 10883 10881 10879 10877 10874 10872 10869 10868 10867 10865 10862 10859 10858 10856 10852 10849 10847 10844 10839 10834 10829 10826 10822 10818 10815 10811 10807 10803 10800 10796 10792 10788 10784 10779 10774 10771 10766 10759 10754 10752 10747 10740 10733 10726 10720 10714 10710 10706 10702 10699 10694 10689 10687 10687 10686 10680 10672 10671 10672 10669 10665 10664 10663 10661 10660 10659 10660 10660 10660 10661
10898 10898 10897 10896 10897 10896 10894 10893 10891 10890 10889 10887 10885 10883 10880 10878 10876 10874 10872 10869 10866 10864 10862 10862 10862 10859 10855 10852 10849 10846 10843 10840 10836 10831 10827 10823 10819 10815 10811 10807 10803 10799 10796 10793 10789 10785 10782 10777 10772 10766 10762 10759 10753 10747 10743 10739 10732 10725 10717 10710 10704 10699 10695 10691 10686 10682 10678 10676 10675 10674 10670 10662 10657 10658 10655 10650 10649 10648 10646 10644 10643 10645 10646 10646 10646
10891 10891 10891 10891 10891 10890 10889 10887 10886 10885 10884 10883 10880 10878 10876 10873 10871 10869 10866 10863 10861 10858 10855 10854 10854 10852 10848 10845 10842 10839 10835 10831 10827 10824 10820 10816 10813 10809 10804 10800 10796 10793 10789 10786 10782 10779 10775 10771 10765 10759 10754 10751 10746 10740 10734 10728 10723 10715 10708 10700 10694 10689 10685 10679 10674 10669 10665 10662 10661 10661 10659 10651 10644 10642 10639 10635 10634 10632 10629 10627 10626 10629 10631 10631 10630
10885 10886 10886 10886 10885 10884 10884 10882 10881 10879 10879 10877 10875 10872 10870 10868 10866 10864 10861 10858 10855 10852 10850 10848 10846 10843 10841 10839 10836 10833 10829 10823 10820 10817 10814 10810 10805 10801 10797 10793 10789 10786 10783 10780 10776 10772 10768 10763 10758 10752 10747 10743 10738 10732 10725 10718 10712 10705 10698 10690 10682 10677 10673 10667 10661 10656 10651 10647 10645 10646 10646 10639 10631 10626 10623 10619 10618 10616 10611 10608 10609 10612 10613 10614 10615
10880 10881 10880 10880 10879 10878 10878 10876 10875 10873 10872 10870 10868 10866 10864 10861 10860 10858 10856 10853 10850 10847 10844 10842 10840 10837 10835 10832 10830 10828 10823 10819 10815 10811 10806 10802 10798 10794 10790 10786 10783 10780 10777 10774 10769 10765 10760 10755 10750 10745 10740 10734 10728 10722 10715 10708 10701 10694 10687 10679 10672 10666 10661 10656 10649 10643 10637 10632 10629 10630 10630 10625 10617 10612 10607 10602 10600 10598 10593 10591 10593 10594 10595 10597 10599
10876 10876 10875 10874 10874 10873 10871 10870 10869 10867 10864 10863 10861 10859 10856 10854 10853 10852 10849 10847 10845 10842 10838 10836 10833 10831 10828 10826 10825 10823 10820 10816 10811 10805 10799 10795 10791 10787 10783 10779 10776 10774 10771 10768 10763 10758 10752 10747 10741 10737 10731 10725 10718 10711 10705 10698 10691 10683 10675 10667 10660 10654 10649 10644 10638 10632 10625 10617 10612 10613 10614 10609 10602 10598 10594 10587 10583 10579 10575 10574 10575 10576 10577 10580 10583
10871 10870 10868 10869 10869 10868 10866 10864 10862 10859 10857 10855 10853 10851 10848 10846 10846 10844 10842 10841 10839 10836 10833 10830 10827 10825 10822 10819 10819 10819 10816 10811 10805 10799 10794 10789 10785 10782 10777 10773 10770 10768 10765 10762 10757 10751 10745 10739 10734 10729 10723 10716 10709 10702 10695 10687 10679 10671 10663 10655 10648 10641 10636 10631 10625 10620 10613 10604 10598 10598 10598 10593 10586 10583 10580 10576 10570 10564 10560 10559 10559 10558 10560 10563 10566
10863 10862 10863 10864 10863 10862 10860 10857 10855 10853 10850 10848 10846 10843 10840 10839 10838 10836 10835 10834 10832 10829 10827 10824 10821 10818 10815 10813 10812 10810 10807 10802 10798 10793 10789 10784 10780 10776 10772 10768 10765 10762 10759 10754 10748 10743 10738 10733 10727 10721 10714 10708 10701 10693 10685 10677 10668 10659 10651 10643 10637 10630 10624 10618 10612 10607 10601 10592 10585 10584 10582 10577 10571 10567 10566 10565 10560 10552 10547 10547 10546 10544 10545 10548 10550